KB1RMA-4 Weather Reports


Display with metric or nautical units.
time (UTC)temp
F
wind
direction
speed
MPH
gust
MPH
rain 1hr
in
rain 24hr
in
rain mn
in
humidity
%
barometer
mb
20260507075359 51 270 1.0 1.0 0.00 0.00 0.00 76 1007.2
20260507074855 51 230 3.0 3.0 0.00 0.00 0.00 77 1007.0
20260507074353 51 246 1.0 2.0 0.00 0.00 0.00 77 1007.0
20260507073850 51 314 1.0 1.0 0.00 0.00 0.00 77 1007.0
20260507073346 51 275 1.0 1.0 0.00 0.00 0.00 77 1007.1
20260507072844 51 273 0.0 1.0 0.00 0.00 0.00 78 1006.7
20260507072341 51 313 1.0 1.0 0.00 0.00 0.00 77 1007.0
20260507071838 52 248 1.0 2.0 0.00 0.00 0.00 78 1006.7
20260507071335 52 288 1.0 2.0 0.00 0.00 0.00 79 1006.8
20260507070831 52 254 0.0 0.0 0.00 0.00 0.00 80 1006.8
20260507070329 52 325 0.0 0.0 0.00 0.00 0.00 82 1006.7
20260507065825 52 342 0.0 0.0 0.00 0.00 0.00 82 1006.8
20260507065322 52 287 0.0 1.0 0.00 0.00 0.00 82 1006.6
20260507064819 52 288 0.0 1.0 0.00 0.00 0.00 82 1006.6
20260507064318 52 280 0.0 0.0 0.00 0.00 0.00 82 1006.7
20260507063816 52 278 0.0 0.0 0.00 0.00 0.00 82 1006.5
20260507063312 52 303 1.0 2.0 0.00 0.00 0.00 82 1006.4
20260507062809 53 275 0.0 0.0 0.00 0.00 0.00 82 1006.2
20260507062306 53 275 0.0 0.0 0.00 0.00 0.00 82 1006.5
20260507061804 53 266 0.0 0.0 0.00 0.00 0.00 82 1006.5
20260507061302 53 277 0.0 0.0 0.00 0.00 0.00 82 1006.7
20260507060800 53 264 0.0 0.0 0.00 0.00 0.00 81 1006.2
20260507060256 53 274 0.0 0.0 0.00 0.00 0.00 81 1006.6
20260507055752 53 298 1.0 1.0 0.00 0.00 0.00 82 1006.5
20260507055248 53 281 0.0 0.0 0.00 0.00 0.00 83 1006.8
20260507054744 53 280 0.0 0.0 0.00 0.00 0.00 83 1006.9
20260507054241 53 263 1.0 3.0 0.00 0.00 0.00 83 1006.5
20260507053739 53 284 0.0 0.0 0.00 0.00 0.00 83 1006.5
20260507053236 53 241 1.0 2.0 0.00 0.00 0.00 83 1006.8
20260507052735 53 305 0.0 1.0 0.00 0.00 0.00 83 1006.8
20260507052231 53 294 0.0 0.0 0.00 0.00 0.00 82 1006.7
20260507051729 53 330 0.0 0.0 0.00 0.00 0.00 82 1006.8
20260507051225 53 158 1.0 5.0 0.00 0.00 0.00 83 1006.8
20260507050722 54 331 0.0 0.0 0.00 0.00 0.00 84 1006.8
20260507050219 54 277 0.0 0.0 0.00 0.00 0.00 84 1007.0
20260507045716 54 278 0.0 0.0 0.00 0.00 0.00 85 1006.8
20260507045212 54 287 0.0 0.0 0.00 0.00 0.00 85 1006.6
20260507044709 54 223 3.0 3.0 0.00 0.00 0.00 85 1006.4
20260507044206 54 289 0.0 0.0 0.00 0.00 0.00 85 1006.5
20260507043702 54 285 0.0 0.0 0.00 0.00 0.00 85 1006.5
20260507043159 55 286 0.0 1.0 0.00 0.00 0.00 86 1006.2
20260507042656 55 287 0.0 1.0 0.00 0.00 0.00 86 1006.6
20260507042150 56 291 0.0 0.0 0.00 0.00 0.00 87 1006.9
20260507041648 56 298 0.0 1.0 0.00 0.00 0.00 87 1006.6
20260507041144 57 282 0.0 0.0 0.00 0.00 0.00 90 1006.5
20260507040641 58 269 3.0 5.0 0.00 0.00 0.00 92 1006.4
20260507040138 59 250 0.0 1.0 0.00 0.25 0.25 93 1006.1
20260507035634 59 267 1.0 2.0 0.00 0.25 0.25 93 1006.1
20260507035130 59 278 0.0 0.0 0.00 0.25 0.25 94 1006.0
20260507034627 59 277 0.0 0.0 0.00 0.25 0.25 94 1006.1
20260507034124 59 277 0.0 0.0 0.07 0.25 0.25 94 1006.2
20260507033623 59 263 0.0 0.0 0.07 0.25 0.25 94 1005.9
20260507033119 59 269 0.0 0.0 0.00 0.24 0.24 94 1005.6
20260507032617 59 283 0.0 0.0 0.00 0.24 0.24 94 1005.4
20260507032113 59 268 0.0 0.0 0.00 0.24 0.24 94 1005.6
20260507031609 59 280 0.0 0.0 0.00 0.24 0.24 94 1005.6
20260507031106 59 277 0.0 0.0 0.00 0.24 0.24 94 1005.2
20260507030603 59 276 1.0 3.0 0.00 0.24 0.24 94 1005.4
20260507030101 59 259 0.0 1.0 0.00 0.24 0.24 94 1005.5
20260507025558 59 280 0.0 0.0 0.00 0.24 0.24 94 1005.3
20260507025055 59 280 0.0 0.0 0.00 0.24 0.24 94 1005.5
20260507024553 59 275 0.0 0.0 0.00 0.24 0.24 94 1005.5
20260507024049 59 286 0.0 0.0 0.00 0.24 0.24 94 1005.5
20260507023545 59 273 0.0 0.0 0.00 0.24 0.24 94 1005.4
20260507023043 59 272 0.0 0.0 0.00 0.24 0.24 94 1005.5
20260507022539 59 282 0.0 0.0 0.00 0.24 0.24 94 1005.3
20260507022035 59 272 0.0 0.0 0.00 0.24 0.24 94 1005.2
20260507021531 59 283 0.0 0.0 0.00 0.24 0.24 94 1005.3
20260507021028 59 285 0.0 0.0 0.00 0.24 0.24 94 1005.3
20260507020525 59 248 0.0 0.0 0.00 0.24 0.24 94 1005.5
20260507020021 59 283 0.0 0.0 0.00 0.24 0.24 94 1005.5
20260507015520 59 279 0.0 0.0 0.00 0.24 0.24 94 1005.7
20260507015017 59 288 0.0 0.0 0.00 0.24 0.24 94 1005.8
20260507014513 59 282 0.0 0.0 0.00 0.24 0.24 94 1005.6
20260507014009 59 279 0.0 0.0 0.00 0.24 0.24 94 1005.5
20260507013506 59 278 0.0 0.0 0.00 0.24 0.24 94 1005.6
20260507013004 59 266 1.0 1.0 0.00 0.24 0.24 94 1005.7
20260507012500 59 237 0.0 0.0 0.00 0.24 0.24 94 1005.6
20260507011957 59 277 1.0 2.0 0.00 0.24 0.24 94 1005.7
20260507011454 59 283 0.0 0.0 0.00 0.24 0.24 94 1005.9
20260507010950 59 273 1.0 2.0 0.00 0.24 0.24 94 1005.7
20260507010444 59 281 0.0 0.0 0.00 0.24 0.24 94 1005.8
20260507005941 59 272 0.0 0.0 0.00 0.24 0.24 94 1005.8
20260507005439 59 261 0.0 1.0 0.00 0.24 0.24 93 1005.7
20260507004935 59 280 0.0 0.0 0.00 0.24 0.24 93 1005.8
20260507004432 59 278 0.0 0.0 0.00 0.24 0.24 93 1005.7
20260507003929 59 278 0.0 0.0 0.00 0.24 0.24 93 1005.6
20260507003424 59 288 0.0 0.0 0.00 0.24 0.24 93 1005.9
20260507002920 59 231 1.0 2.0 0.00 0.24 0.24 93 1005.8
20260507002416 59 252 0.0 1.0 0.00 0.24 0.24 93 1005.9
20260507001913 59 279 0.0 0.0 0.00 0.24 0.24 92 1005.6
20260507001410 59 265 0.0 0.0 0.00 0.24 0.24 92 1005.6
20260507000908 59 278 0.0 0.0 0.00 0.24 0.24 91 1005.6
20260507000405 59 270 0.0 1.0 0.00 0.24 0.24 91 1005.6
20260506235859 60 277 0.0 0.0 0.00 0.24 0.24 91 1005.6
20260506235356 60 279 0.0 0.0 0.05 0.24 0.24 90 1005.4
20260506234852 60 278 0.0 0.0 0.12 0.24 0.24 90 1005.4
20260506234350 60 277 0.0 0.0 0.14 0.23 0.23 89 1005.5
20260506233847 60 235 0.0 0.0 0.19 0.22 0.22 89 1005.4
20260506233343 60 278 0.0 0.0 0.24 0.21 0.21 88 1005.6
20260506232840 60 288 0.0 0.0 0.07 0.18 0.18 88 1005.6
20260506232336 60 274 0.0 1.0 0.00 0.17 0.17 88 1005.5
20260506231832 60 288 1.0 3.0 0.00 0.17 0.17 88 1005.7
20260506231330 60 267 0.0 1.0 0.05 0.17 0.17 88 1005.8
20260506230827 60 178 2.0 3.0 0.05 0.17 0.17 87 1005.9
20260506230324 60 271 0.0 0.0 0.00 0.16 0.16 87 1005.7
20260506225820 60 275 0.0 0.0 0.00 0.16 0.16 87 1005.9
20260506225318 60 253 2.0 3.0 0.00 0.16 0.16 87 1005.9
20260506224814 60 290 0.0 1.0 0.07 0.16 0.16 87 1005.7
20260506224312 60 285 0.0 1.0 0.12 0.16 0.16 86 1005.7
20260506223808 60 214 1.0 1.0 0.05 0.15 0.15 86 1005.9
20260506223304 60 222 0.0 0.0 0.00 0.14 0.14 86 1006.1
20260506222801 60 276 1.0 1.0 0.00 0.14 0.14 86 1005.8
20260506222256 60 250 1.0 2.0 0.00 0.14 0.14 86 1005.8
20260506221754 60 261 1.0 1.0 0.00 0.14 0.14 86 1005.9
20260506221252 60 261 1.0 2.0 0.00 0.14 0.14 87 1006.1
20260506220749 60 283 2.0 2.0 0.00 0.14 0.14 87 1006.0
20260506220244 60 278 0.0 0.0 0.00 0.14 0.14 87 1006.2
20260506215741 60 288 0.0 1.0 0.00 0.14 0.14 87 1006.0
20260506215237 61 247 1.0 1.0 0.00 0.14 0.14 87 1006.0
20260506214733 61 271 0.0 0.0 0.00 0.14 0.14 87 1006.2
20260506214230 61 273 0.0 0.0 0.07 0.14 0.14 87 1006.4
20260506213728 61 278 0.0 0.0 0.07 0.14 0.14 87 1006.4
20260506213225 61 267 0.0 0.0 0.05 0.13 0.13 87 1006.5
20260506212722 61 283 0.0 0.0 0.05 0.13 0.13 86 1006.6
20260506212218 61 278 0.0 1.0 0.07 0.12 0.12 86 1006.5
20260506211714 61 280 0.0 0.0 0.07 0.12 0.12 86 1006.6
20260506211210 61 277 1.0 2.0 0.00 0.11 0.11 85 1006.5
20260506210707 61 276 0.0 0.0 0.05 0.11 0.11 85 1006.6
20260506210204 62 268 2.0 2.0 0.07 0.10 0.10 84 1006.9
20260506205701 62 275 0.0 0.0 0.14 0.10 0.10 84 1006.8
20260506205156 62 261 1.0 1.0 0.07 0.09 0.09 83 1006.6
20260506204654 62 281 0.0 0.0 0.05 0.08 0.08 83 1006.8
20260506204150 62 271 0.0 0.0 0.05 0.08 0.08 82 1006.7
20260506203649 62 261 1.0 1.0 0.12 0.07 0.07 82 1006.5
20260506203145 63 277 0.0 0.0 0.19 0.07 0.07 81 1006.9
20260506202644 63 281 0.0 0.0 0.12 0.06 0.06 80 1006.6
20260506202139 63 272 0.0 0.0 0.05 0.04 0.04 79 1006.8
20260506201636 64 284 0.0 0.0 0.05 0.04 0.04 79 1006.6
20260506201133 64 280 0.0 0.0 0.00 0.03 0.03 78 1006.6
20260506200629 64 281 0.0 0.0 0.00 0.03 0.03 78 1006.4
20260506200126 64 295 0.0 0.0 0.07 0.03 0.03 77 1006.4
20260506195623 64 273 0.0 0.0 0.07 0.03 0.03 77 1006.6
20260506195119 65 276 0.0 0.0 0.00 0.02 0.02 77 1006.6
20260506194617 65 282 0.0 0.0 0.05 0.02 0.02 76 1006.6
20260506194113 65 277 0.0 0.0 0.05 0.02 0.02 75 1006.7
20260506193611 66 276 0.0 0.0 0.00 0.01 0.01 74 1007.1
20260506193108 66 276 0.0 0.0 0.00 0.01 0.01 73 1006.9
20260506192605 66 278 0.0 0.0 0.07 0.01 0.01 72 1006.7
20260506192100 67 278 0.0 0.0 0.00 0.00 0.00 70 1006.6
20260506191557 67 272 0.0 0.0 0.00 0.00 0.00 69 1006.8
20260506191053 67 258 0.0 0.0 0.00 0.00 0.00 69 1006.7
20260506190550 67 278 0.0 1.0 0.00 0.00 0.00 68 1006.8
20260506190048 67 280 0.0 0.0 0.00 0.00 0.00 67 1006.8
20260506185545 68 267 0.0 1.0 0.00 0.00 0.00 66 1007.0
20260506185041 68 271 0.0 1.0 0.00 0.00 0.00 65 1006.5
20260506184539 68 281 0.0 0.0 0.00 0.00 0.00 65 1006.8
20260506184036 69 279 0.0 0.0 0.00 0.00 0.00 63 1006.9
20260506183531 70 256 0.0 1.0 0.00 0.00 0.00 61 1007.0
20260506183029 71 241 2.0 2.0 0.00 0.00 0.00 57 1006.5
20260506182526 71 271 2.0 3.0 0.00 0.00 0.00 55 1006.6
20260506182023 72 286 1.0 1.0 0.00 0.00 0.00 55 1006.6
20260506181521 72 268 0.0 1.0 0.00 0.00 0.00 55 1006.8
20260506181017 72 276 0.0 0.0 0.00 0.00 0.00 54 1006.8
20260506180514 72 274 0.0 0.0 0.00 0.00 0.00 53 1006.9
20260506180011 73 279 0.0 0.0 0.00 0.00 0.00 53 1006.9
20260506175507 73 267 0.0 0.0 0.00 0.00 0.00 53 1007.1
20260506175003 73 272 0.0 1.0 0.00 0.00 0.00 54 1007.1
20260506174502 72 272 0.0 1.0 0.00 0.00 0.00 54 1007.0
20260506173958 74 259 3.0 6.0 0.00 0.00 0.00 52 1007.1
20260506173456 75 276 0.0 0.0 0.00 0.00 0.00 51 1007.1
20260506172952 74 288 1.0 2.0 0.00 0.00 0.00 52 1007.0
20260506172450 73 276 1.0 2.0 0.00 0.00 0.00 54 1007.3
20260506171946 72 252 4.0 6.0 0.00 0.00 0.00 55 1007.2
20260506171443 72 285 1.0 2.0 0.00 0.00 0.00 55 1007.3
20260506170941 72 291 0.0 0.0 0.00 0.00 0.00 55 1007.5
20260506170438 71 279 0.0 0.0 0.00 0.00 0.00 56 1007.6
20260506165936 71 274 2.0 5.0 0.00 0.00 0.00 56 1007.4
20260506165434 71 264 1.0 1.0 0.00 0.00 0.00 56 1007.7
20260506164930 71 274 0.0 0.0 0.00 0.00 0.00 56 1007.4
20260506164427 71 279 0.0 0.0 0.00 0.00 0.00 55 1007.7
20260506163926 71 271 0.0 0.0 0.00 0.00 0.00 56 1007.7
20260506163425 72 229 3.0 5.0 0.00 0.00 0.00 55 1007.5
20260506162920 73 272 0.0 2.0 0.00 0.00 0.00 54 1007.8
20260506162419 73 264 0.0 0.0 0.00 0.00 0.00 53 1008.0
20260506161916 73 237 0.0 0.0 0.00 0.00 0.00 52 1007.9
20260506161414 73 237 0.0 1.0 0.00 0.00 0.00 52 1008.1
20260506160911 73 244 2.0 2.0 0.00 0.00 0.00 52 1008.3
20260506160408 73 275 0.0 1.0 0.00 0.00 0.00 52 1008.4
20260506155906 73 263 0.0 0.0 0.00 0.00 0.00 53 1008.3
20260506155402 72 245 1.0 2.0 0.00 0.00 0.00 53 1008.7
20260506153519 73 267 0.0 0.0 0.00 0.00 0.00 54 1008.9
20260506153017 73 227 3.0 3.0 0.00 0.00 0.00 54 1009.0
20260506152513 73 278 1.0 1.0 0.00 0.00 0.00 55 1009.0
20260506152012 73 260 1.0 1.0 0.00 0.00 0.00 54 1009.0
20260506151509 73 275 2.0 3.0 0.00 0.00 0.00 54 1009.0
20260506151006 72 276 0.0 1.0 0.00 0.00 0.00 56 1009.1
20260506150502 72 278 1.0 2.0 0.00 0.00 0.00 55 1009.3
20260506145959 72 217 2.0 2.0 0.00 0.00 0.00 55 1009.1
20260506145455 72 277 1.0 2.0 0.00 0.00 0.00 55 1009.3
20260506144953 71 196 3.0 5.0 0.00 0.00 0.00 55 1009.1
20260506144450 72 89 3.0 7.0 0.00 0.00 0.00 54 1009.1
20260506143948 71 237 2.0 3.0 0.00 0.00 0.00 55 1009.2
20260506143444 72 278 0.0 1.0 0.00 0.00 0.00 56 1008.9
20260506142943 72 264 0.0 1.0 0.00 0.00 0.00 57 1008.8
20260506142440 71 250 1.0 1.0 0.00 0.00 0.00 58 1009.0
20260506141939 71 300 1.0 1.0 0.00 0.00 0.00 57 1009.0
20260506141436 71 274 1.0 1.0 0.00 0.00 0.00 58 1008.8
20260506140935 70 271 0.0 0.0 0.00 0.00 0.00 59 1008.7
20260506140431 69 256 2.0 3.0 0.00 0.00 0.00 59 1008.9
20260506135928 69 270 1.0 1.0 0.00 0.00 0.00 60 1009.3
20260506135425 69 281 1.0 1.0 0.00 0.00 0.00 60 1009.0
20260506134921 69 267 2.0 2.0 0.00 0.00 0.00 61 1009.4
20260506134417 68 275 1.0 1.0 0.00 0.00 0.00 61 1009.4
20260506133915 68 196 2.0 2.0 0.00 0.00 0.00 61 1009.5
20260506133411 68 289 0.0 0.0 0.00 0.00 0.00 62 1009.5
20260506132908 68 243 2.0 3.0 0.00 0.00 0.00 61 1009.8
20260506132405 68 272 4.0 5.0 0.00 0.00 0.00 62 1009.4
20260506131903 68 273 2.0 5.0 0.00 0.00 0.00 62 1009.5
20260506131359 67 275 0.0 0.0 0.00 0.00 0.00 63 1009.5
20260506130856 67 275 0.0 0.0 0.00 0.00 0.00 63 1009.5
20260506130352 67 278 1.0 1.0 0.00 0.00 0.00 63 1009.4
20260506125850 68 277 0.0 0.0 0.00 0.00 0.00 63 1009.9
20260506125349 67 247 3.0 3.0 0.00 0.00 0.00 63 1009.5
20260506124847 66 280 1.0 1.0 0.00 0.00 0.00 65 1009.5
20260506124343 66 189 3.0 3.0 0.00 0.00 0.00 65 1009.6
20260506123841 65 264 3.0 5.0 0.00 0.00 0.00 65 1009.7
20260506123339 66 262 1.0 2.0 0.00 0.00 0.00 65 1009.8
20260506122836 65 276 0.0 0.0 0.00 0.00 0.00 66 1009.5
20260506122333 65 283 0.0 0.0 0.00 0.00 0.00 66 1009.7
20260506121831 65 259 1.0 1.0 0.00 0.00 0.00 67 1009.3
20260506121328 64 273 1.0 1.0 0.00 0.00 0.00 67 1009.5
20260506120825 64 274 0.0 0.0 0.00 0.00 0.00 67 1009.6
20260506120323 64 259 0.0 0.0 0.00 0.00 0.00 67 1009.6
20260506115820 64 234 1.0 2.0 0.00 0.00 0.00 68 1009.6
20260506115318 64 268 1.0 1.0 0.00 0.00 0.00 68 1009.7
20260506114816 64 283 1.0 1.0 0.00 0.00 0.00 68 1009.7
20260506114313 63 264 1.0 1.0 0.00 0.00 0.00 68 1009.8
20260506113812 63 266 0.0 0.0 0.00 0.00 0.00 68 1010.0
20260506113309 63 276 0.0 1.0 0.00 0.00 0.00 68 1010.0
20260506112805 63 203 3.0 6.0 0.00 0.00 0.00 68 1009.6
20260506112305 63 276 0.0 0.0 0.00 0.00 0.00 69 1009.9
20260506111800 63 269 1.0 1.0 0.00 0.00 0.00 69 1009.9
20260506111258 62 276 0.0 0.0 0.00 0.00 0.00 70 1010.1
20260506110755 62 282 0.0 1.0 0.00 0.00 0.00 71 1009.9
20260506110252 62 272 0.0 0.0 0.00 0.00 0.00 71 1010.1
20260506105749 61 261 3.0 3.0 0.00 0.00 0.00 71 1010.0
20260506105246 62 243 2.0 2.0 0.00 0.00 0.00 71 1009.9
20260506104743 62 258 2.0 2.0 0.00 0.00 0.00 71 1009.9
20260506104241 62 276 0.0 0.0 0.00 0.00 0.00 71 1009.9
20260506103738 62 269 0.0 0.0 0.00 0.00 0.00 71 1010.0
20260506103235 61 275 0.0 0.0 0.00 0.00 0.00 70 1009.9
20260506102733 61 317 1.0 3.0 0.00 0.00 0.00 71 1010.0
20260506102231 61 286 0.0 0.0 0.00 0.00 0.00 70 1010.0
20260506101727 61 260 1.0 2.0 0.00 0.00 0.00 70 1009.9
20260506101224 61 269 0.0 1.0 0.00 0.00 0.00 71 1010.2
20260506100722 61 266 1.0 1.0 0.00 0.00 0.00 71 1009.9
20260506100220 61 271 1.0 1.0 0.00 0.00 0.00 70 1009.7
20260506095718 61 275 0.0 0.0 0.00 0.00 0.00 71 1009.8
20260506095214 61 276 0.0 0.0 0.00 0.00 0.00 71 1009.7
20260506094712 61 288 0.0 0.0 0.00 0.00 0.00 71 1009.6
20260506094209 61 280 0.0 0.0 0.00 0.00 0.00 70 1009.9
20260506093708 61 267 1.0 2.0 0.00 0.00 0.00 70 1009.9
20260506093205 61 280 0.0 0.0 0.00 0.00 0.00 70 1009.9
20260506092702 61 255 1.0 3.0 0.00 0.00 0.00 70 1009.7
20260506092200 61 277 0.0 0.0 0.00 0.00 0.00 70 1009.8
20260506091658 61 282 0.0 0.0 0.00 0.00 0.00 69 1009.8
20260506091155 61 276 0.0 0.0 0.00 0.00 0.00 69 1009.8
20260506090652 61 277 0.0 0.0 0.00 0.00 0.00 69 1009.8
20260506090149 62 279 0.0 1.0 0.00 0.00 0.00 68 1009.9
20260506085646 62 280 1.0 1.0 0.00 0.00 0.00 68 1009.8
20260506085142 62 279 0.0 0.0 0.00 0.00 0.00 68 1009.8
20260506084638 62 264 2.0 2.0 0.00 0.00 0.00 68 1009.7
20260506084136 62 280 0.0 0.0 0.00 0.00 0.00 68 1009.7
20260506083632 62 265 2.0 2.0 0.00 0.00 0.00 67 1010.0
20260506083130 62 284 0.0 0.0 0.00 0.00 0.00 67 1009.6
20260506082626 62 258 1.0 2.0 0.00 0.00 0.00 67 1009.6
20260506082122 62 278 0.0 0.0 0.00 0.00 0.00 67 1009.7
20260506081621 62 209 3.0 3.0 0.00 0.00 0.00 67 1009.6
20260506081118 62 278 0.0 0.0 0.00 0.00 0.00 67 1009.7
20260506080615 62 278 0.0 0.0 0.00 0.00 0.00 66 1009.6
20260506080112 62 193 1.0 3.0 0.00 0.00 0.00 67 1009.7